KC5TXI Weather Reports


Display with metric or nautical units.
time (UTC)temp
F
wind
direction
speed
MPH
gust
MPH
rain 1hr
in
rain 24hr
in
rain mn
in
humidity
%
barometer
mb
20260506173315 55 253 3.0 3.0 0.00 0.07 0.07 91 1015.8
20260506172812 55 101 2.0 2.0 0.00 0.07 0.07 91 1015.8
20260506172308 55 249 1.0 1.0 0.00 0.07 0.07 92 1015.9
20260506171801 55 199 1.0 1.0 0.00 0.07 0.07 92 1015.8
20260506171258 55 160 0.0 1.0 0.00 0.07 0.07 92 1015.7
20260506170755 55 136 0.0 1.0 0.00 0.07 0.07 92 1015.8
20260506170251 55 195 0.0 1.0 0.00 0.07 0.07 92 1015.9
20260506165750 54 83 2.0 3.0 0.00 0.07 0.07 92 1016.3
20260506165247 54 201 1.0 2.0 0.00 0.07 0.07 92 1016.2
20260506164744 55 291 3.0 3.0 0.00 0.07 0.07 92 1015.9
20260506164241 54 319 3.0 5.0 0.00 0.07 0.07 93 1016.1
20260506163738 55 17 3.0 3.0 0.00 0.07 0.07 93 1015.6
20260506163232 54 187 0.0 0.0 0.00 0.07 0.07 93 1015.9
20260506162729 55 197 1.0 1.0 0.00 0.07 0.07 93 1015.9
20260506162226 55 76 0.0 1.0 0.00 0.07 0.07 93 1015.8
20260506161718 55 26 2.0 2.0 0.00 0.07 0.07 93 1015.9
20260506161215 55 310 3.0 3.0 0.00 0.07 0.07 93 1015.8
20260506160713 55 65 2.0 2.0 0.00 0.07 0.07 94 1016.1
20260506160209 54 38 2.0 3.0 0.00 0.07 0.07 95 1016.4
20260506155708 54 124 1.0 2.0 0.00 0.07 0.07 95 1016.3
20260506155204 54 76 0.0 2.0 0.00 0.07 0.07 95 1016.5
20260506153306 54 63 2.0 2.0 0.00 0.07 0.07 95 1015.3
20260506152803 53 86 1.0 2.0 0.00 0.07 0.07 94 1015.0
20260506152300 53 173 0.0 1.0 0.00 0.07 0.07 94 1015.7
20260506151759 54 333 4.0 6.0 0.12 0.07 0.07 92 1016.4
20260506151255 54 217 1.0 1.0 0.45 0.07 0.07 92 1017.5
20260506150752 54 175 2.0 2.0 0.33 0.06 0.06 90 1016.3
20260506150249 54 169 0.0 0.0 0.00 0.00 0.00 89 1017.4
20260506145746 54 219 2.0 2.0 0.00 0.00 0.00 88 1017.6
20260506145242 54 116 1.0 1.0 0.00 0.00 0.00 87 1017.6
20260506144740 54 204 2.0 2.0 0.00 0.00 0.00 86 1017.6
20260506144237 54 181 0.0 0.0 0.00 0.00 0.00 86 1017.4
20260506143734 55 234 2.0 2.0 0.00 0.00 0.00 85 1017.9
20260506143232 54 272 3.0 3.0 0.00 0.00 0.00 85 1017.1
20260506142730 54 351 3.0 6.0 0.00 0.00 0.00 85 1015.2
20260506142228 54 226 1.0 2.0 0.00 0.00 0.00 85 1016.1
20260506141726 55 171 2.0 3.0 0.00 0.00 0.00 85 1015.7
20260506141224 54 87 1.0 2.0 0.00 0.00 0.00 85 1016.2
20260506140721 55 1 4.0 6.0 0.00 0.00 0.00 84 1016.4
20260506140218 55 118 1.0 2.0 0.00 0.00 0.00 85 1015.8
20260506135714 55 277 3.0 5.0 0.00 0.00 0.00 84 1015.7
20260506135211 54 201 1.0 1.0 0.00 0.00 0.00 84 1016.1
20260506134708 55 224 3.0 5.0 0.00 0.00 0.00 84 1015.7
20260506134204 55 22 2.0 3.0 0.00 0.00 0.00 83 1015.4
20260506133701 55 117 3.0 3.0 0.00 0.00 0.00 83 1015.2
20260506133157 55 64 3.0 5.0 0.00 0.00 0.00 82 1015.4
20260506132655 55 191 1.0 3.0 0.00 0.00 0.00 82 1015.2
20260506132152 55 232 0.0 1.0 0.00 0.00 0.00 82 1015.1
20260506131650 55 59 2.0 3.0 0.00 0.00 0.00 82 1015.1
20260506131145 55 340 1.0 5.0 0.00 0.00 0.00 81 1015.0
20260506130642 55 343 2.0 3.0 0.00 0.00 0.00 80 1014.8
20260506130140 55 82 0.0 1.0 0.00 0.00 0.00 80 1014.6
20260506125638 56 61 1.0 2.0 0.00 0.00 0.00 79 1014.7
20260506125135 56 72 1.0 2.0 0.00 0.00 0.00 79 1014.7
20260506124633 56 245 1.0 2.0 0.00 0.00 0.00 79 1014.4
20260506124131 56 190 1.0 1.0 0.00 0.00 0.00 79 1014.6
20260506123628 56 45 2.0 2.0 0.00 0.00 0.00 79 1014.6
20260506123127 56 207 4.0 5.0 0.00 0.00 0.00 79 1014.5
20260506122623 56 15 3.0 3.0 0.00 0.00 0.00 79 1014.4
20260506122121 56 54 3.0 5.0 0.00 0.00 0.00 79 1014.0
20260506121618 56 227 5.0 7.0 0.00 0.00 0.00 79 1014.0
20260506121114 56 61 3.0 3.0 0.00 0.00 0.00 78 1014.3
20260506120613 56 279 4.0 6.0 0.00 0.00 0.00 79 1014.1
20260506120110 56 56 4.0 6.0 0.00 0.00 0.00 78 1014.1
20260506115608 56 354 2.0 3.0 0.00 0.00 0.00 78 1014.0
20260506115106 56 202 2.0 2.0 0.00 0.00 0.00 78 1014.3
20260506114603 57 337 6.0 7.0 0.00 0.00 0.00 78 1013.9
20260506114101 57 319 2.0 2.0 0.00 0.00 0.00 78 1014.0
20260506113559 57 34 1.0 2.0 0.00 0.00 0.00 78 1013.8
20260506113056 57 276 2.0 3.0 0.00 0.00 0.00 78 1013.6
20260506112552 57 341 4.0 6.0 0.00 0.00 0.00 79 1013.7
20260506112050 57 51 5.0 7.0 0.00 0.00 0.00 79 1013.5
20260506111547 57 337 1.0 1.0 0.00 0.00 0.00 79 1013.2
20260506111044 57 20 3.0 3.0 0.00 0.00 0.00 79 1013.3
20260506110542 57 223 2.0 2.0 0.00 0.00 0.00 78 1013.2
20260506110039 58 174 0.0 1.0 0.00 0.00 0.00 79 1013.3
20260506105535 58 213 1.0 2.0 0.00 0.00 0.00 79 1013.1
20260506105033 58 34 1.0 2.0 0.00 0.00 0.00 79 1013.0
20260506104531 58 28 3.0 5.0 0.00 0.00 0.00 79 1013.0
20260506104028 58 76 3.0 5.0 0.00 0.00 0.00 79 1013.2
20260506103525 58 139 1.0 2.0 0.00 0.00 0.00 79 1012.8
20260506103022 58 49 4.0 6.0 0.00 0.00 0.00 78 1012.7
20260506102520 59 237 2.0 2.0 0.00 0.00 0.00 79 1012.4
20260506102017 59 91 2.0 2.0 0.00 0.00 0.00 79 1012.4
20260506101513 59 47 3.0 5.0 0.00 0.00 0.00 79 1012.5
20260506101011 59 184 1.0 1.0 0.00 0.00 0.00 79 1012.2
20260506100509 59 234 1.0 1.0 0.00 0.00 0.00 79 1012.2
20260506100008 59 209 2.0 2.0 0.00 0.00 0.00 79 1012.1
20260506095506 59 312 3.0 3.0 0.00 0.00 0.00 79 1012.0
20260506095001 59 314 2.0 2.0 0.00 0.00 0.00 79 1012.0
20260506094459 60 313 3.0 6.0 0.00 0.00 0.00 79 1012.0
20260506093957 60 321 3.0 3.0 0.00 0.00 0.00 79 1012.1
20260506093455 60 198 0.0 0.0 0.00 0.00 0.00 79 1011.9
20260506092952 60 316 3.0 5.0 0.00 0.00 0.00 79 1011.9
20260506092450 60 72 3.0 3.0 0.00 0.00 0.00 79 1011.9
20260506091946 60 80 3.0 5.0 0.00 0.00 0.00 79 1011.9
20260506091445 60 85 2.0 2.0 0.00 0.00 0.00 79 1011.9
20260506090942 60 247 2.0 2.0 0.00 0.00 0.00 79 1011.9
20260506090440 60 193 1.0 2.0 0.00 0.00 0.00 79 1011.9
20260506085935 60 0 3.0 3.0 0.00 0.00 0.00 78 1011.7
20260506085432 61 27 2.0 2.0 0.00 0.00 0.00 78 1011.8
20260506084929 61 88 1.0 1.0 0.00 0.00 0.00 78 1011.6
20260506084426 61 355 1.0 2.0 0.00 0.00 0.00 78 1011.5
20260506083922 61 90 0.0 1.0 0.00 0.00 0.00 78 1011.6
20260506083419 61 37 1.0 2.0 0.00 0.00 0.00 78 1011.6
20260506082917 61 173 1.0 1.0 0.00 0.00 0.00 78 1011.4
20260506082414 61 201 0.0 0.0 0.00 0.00 0.00 78 1011.5
20260506081909 61 29 2.0 2.0 0.00 0.00 0.00 78 1011.7
20260506081408 61 87 1.0 1.0 0.00 0.00 0.00 79 1011.4
20260506080905 61 76 3.0 5.0 0.00 0.00 0.00 78 1011.4
20260506080402 61 48 1.0 1.0 0.00 0.00 0.00 79 1011.4
20260506073345 62 103 4.0 5.0 0.00 0.00 0.00 80 1011.2
20260506072842 62 146 0.0 0.0 0.00 0.00 0.00 80 1011.2
20260506072340 62 179 0.0 1.0 0.00 0.00 0.00 80 1011.2
20260506071838 62 26 3.0 3.0 0.00 0.00 0.00 80 1011.1
20260506071336 62 20 0.0 1.0 0.00 0.00 0.00 80 1011.3
20260506070832 62 92 2.0 2.0 0.00 0.00 0.00 80 1011.3
20260506070329 62 78 2.0 3.0 0.00 0.00 0.00 80 1011.1
20260506062306 63 163 2.0 3.0 0.00 0.00 0.00 80 1011.0
20260506061802 63 127 0.0 1.0 0.00 0.00 0.00 80 1011.1
20260506061259 63 301 0.0 1.0 0.00 0.00 0.00 79 1011.2
20260506060757 63 86 3.0 3.0 0.00 0.00 0.00 79 1011.0
20260506060254 63 115 1.0 1.0 0.00 0.00 0.00 79 1011.0
20260506051226 65 191 1.0 1.0 0.00 0.00 0.00 78 1011.3
20260506050724 65 194 0.0 0.0 0.00 0.00 0.00 78 1011.1
20260506050221 65 197 1.0 2.0 0.00 0.00 0.00 78 1011.1
20260506044707 66 320 5.0 6.0 0.00 0.00 0.00 77 1011.0
20260506044203 66 201 1.0 2.0 0.00 0.00 0.00 77 1010.9
20260506043701 67 349 2.0 3.0 0.00 0.00 0.00 77 1010.9
20260506043159 67 228 3.0 3.0 0.00 0.00 0.00 77 1011.2
20260506042658 67 198 1.0 1.0 0.00 0.00 0.00 77 1011.2
20260506042155 67 210 1.0 2.0 0.00 0.00 0.00 77 1011.1
20260506041654 68 217 3.0 5.0 0.00 0.00 0.00 76 1011.0
20260506041150 68 44 4.0 6.0 0.00 0.00 0.00 76 1010.8
20260506040648 69 206 1.0 1.0 0.00 0.00 0.00 76 1010.9
20260506040144 69 313 2.0 3.0 0.00 0.00 0.00 76 1010.8
20260506035641 69 353 1.0 2.0 0.00 0.00 0.00 75 1010.6
20260506035138 69 323 2.0 3.0 0.00 0.00 0.00 75 1010.3
20260506034635 69 330 4.0 5.0 0.00 0.00 0.00 75 1010.0
20260506034132 69 344 3.0 5.0 0.00 0.00 0.00 74 1010.4
20260506033629 69 74 3.0 3.0 0.00 0.00 0.00 74 1010.3
20260506033126 69 311 3.0 5.0 0.00 0.00 0.00 74 1009.9
20260506032623 69 166 2.0 3.0 0.00 0.00 0.00 73 1009.9
20260506032120 69 228 1.0 2.0 0.00 0.00 0.00 73 1009.7
20260506031617 70 131 1.0 1.0 0.00 0.00 0.00 72 1009.6
20260506031114 70 275 3.0 5.0 0.00 0.00 0.00 71 1009.6
20260506030613 70 311 3.0 3.0 0.00 0.00 0.00 71 1009.7
20260506030110 70 254 2.0 2.0 0.00 0.00 0.00 70 1009.4
20260506025607 71 177 1.0 1.0 0.00 0.00 0.00 70 1009.5
20260506025102 71 233 2.0 2.0 0.00 0.00 0.00 70 1009.7
20260506024600 71 152 2.0 2.0 0.00 0.00 0.00 71 1009.6
20260506024056 71 247 3.0 3.0 0.00 0.00 0.00 72 1009.2
20260506023552 71 9 1.0 2.0 0.00 0.00 0.00 71 1009.2
20260506023050 72 268 2.0 3.0 0.00 0.00 0.00 71 1009.1
20260506022547 72 272 4.0 5.0 0.00 0.00 0.00 71 1008.8
20260506022044 73 287 4.0 6.0 0.00 0.00 0.00 70 1008.9
20260506021536 73 12 3.0 3.0 0.00 0.00 0.00 70 1008.6
20260506021033 73 309 3.0 3.0 0.00 0.00 0.00 71 1008.7
20260506020531 73 219 4.0 5.0 0.00 0.00 0.00 70 1008.2
20260506020027 73 215 1.0 2.0 0.00 0.00 0.00 70 1007.9
20260506015524 73 247 1.0 2.0 0.00 0.00 0.00 70 1008.0
20260506015016 74 325 2.0 3.0 0.00 0.00 0.00 70 1007.9
20260506014514 74 177 0.0 0.0 0.00 0.00 0.00 70 1007.8
20260506014009 74 303 2.0 3.0 0.00 0.00 0.00 70 1007.8
20260506013508 74 222 2.0 5.0 0.00 0.00 0.00 69 1007.8
20260506013004 75 224 1.0 2.0 0.00 0.00 0.00 69 1007.8
20260506012500 75 304 2.0 2.0 0.00 0.00 0.00 69 1007.3
20260506011957 76 357 5.0 6.0 0.00 0.00 0.00 68 1007.1
20260506011454 77 77 4.0 6.0 0.00 0.00 0.00 68 1007.1
20260506010951 78 85 1.0 1.0 0.00 0.00 0.00 65 1007.4
20260506010450 78 181 1.0 1.0 0.00 0.00 0.00 65 1007.3
20260506005946 78 195 0.0 1.0 0.00 0.00 0.00 65 1007.1
20260506005444 78 182 1.0 1.0 0.00 0.00 0.00 65 1006.9
20260506004938 78 277 2.0 2.0 0.00 0.00 0.00 65 1007.0
20260506004437 78 82 1.0 2.0 0.00 0.00 0.00 65 1006.7
20260506003932 79 259 1.0 2.0 0.00 0.00 0.00 65 1006.9
20260506003429 80 194 1.0 1.0 0.00 0.00 0.00 64 1006.8
20260506002925 80 55 3.0 5.0 0.00 0.00 0.00 63 1006.8
20260506002421 80 57 1.0 2.0 0.00 0.00 0.00 62 1006.5
20260506001917 80 264 4.0 6.0 0.00 0.00 0.00 61 1006.7
20260506001414 81 312 3.0 5.0 0.00 0.00 0.00 61 1006.6
20260506000911 81 222 3.0 5.0 0.00 0.00 0.00 61 1006.7
20260506000409 82 193 1.0 2.0 0.00 0.00 0.00 61 1006.7
20260505235905 82 234 1.0 1.0 0.00 0.00 0.00 61 1006.6
20260505235404 83 51 2.0 3.0 0.00 0.00 0.00 60 1006.4
20260505234900 84 125 1.0 1.0 0.00 0.00 0.00 60 1006.1
20260505234358 84 280 5.0 7.0 0.00 0.00 0.00 59 1006.2
20260505233854 85 200 1.0 2.0 0.00 0.00 0.00 57 1006.3
20260505233352 86 160 0.0 1.0 0.00 0.00 0.00 55 1005.9
20260505232849 86 190 0.0 0.0 0.00 0.00 0.00 53 1005.8
20260505232347 86 2 1.0 2.0 0.00 0.00 0.00 52 1005.8
20260505231843 87 258 2.0 2.0 0.00 0.00 0.00 51 1005.7
20260505231341 87 332 2.0 5.0 0.00 0.00 0.00 51 1005.7
20260505230839 88 178 0.0 0.0 0.00 0.00 0.00 52 1005.5
20260505230336 89 175 2.0 2.0 0.00 0.00 0.00 59 1005.5
20260505225832 90 200 0.0 0.0 0.00 0.00 0.00 59 1005.5
20260505225330 90 187 3.0 3.0 0.00 0.00 0.00 58 1005.3
20260505224825 91 214 1.0 1.0 0.00 0.00 0.00 58 1005.1
20260505224323 93 199 0.0 1.0 0.00 0.00 0.00 54 1005.2
20260505223820 93 194 0.0 0.0 0.00 0.00 0.00 48 1005.0
20260505223317 93 202 0.0 0.0 0.00 0.00 0.00 46 1005.1
20260505222812 93 108 0.0 1.0 0.00 0.00 0.00 43 1005.0
20260505222309 94 206 0.0 1.0 0.00 0.00 0.00 44 1005.0
20260505221806 94 173 0.0 0.0 0.00 0.00 0.00 43 1005.0
20260505221303 94 195 0.0 0.0 0.00 0.00 0.00 47 1004.8
20260505220800 95 197 0.0 1.0 0.00 0.00 0.00 46 1004.9
20260505220257 95 181 0.0 0.0 0.00 0.00 0.00 49 1005.0
20260505215755 95 222 0.0 1.0 0.00 0.00 0.00 47 1005.1
20260505215252 94 204 1.0 2.0 0.00 0.00 0.00 49 1004.8
20260505214750 94 211 1.0 1.0 0.00 0.00 0.00 49 1004.9
20260505214247 93 204 1.0 1.0 0.00 0.00 0.00 50 1005.1
20260505213744 93 176 0.0 1.0 0.00 0.00 0.00 50 1005.2
20260505213242 93 207 1.0 2.0 0.00 0.00 0.00 50 1005.1
20260505212737 93 195 0.0 0.0 0.00 0.00 0.00 49 1005.1
20260505212235 93 189 0.0 0.0 0.00 0.00 0.00 50 1005.2
20260505211732 93 201 0.0 0.0 0.00 0.00 0.00 50 1005.4
20260505211229 93 222 1.0 1.0 0.00 0.00 0.00 50 1005.3
20260505210725 93 210 1.0 1.0 0.00 0.00 0.00 50 1005.3
20260505210222 93 211 0.0 1.0 0.00 0.00 0.00 52 1005.5
20260505205720 92 195 1.0 1.0 0.00 0.00 0.00 55 1005.7
20260505205218 93 204 0.0 0.0 0.00 0.00 0.00 54 1005.9
20260505204714 93 201 0.0 1.0 0.00 0.00 0.00 54 1005.8
20260505204212 92 188 3.0 3.0 0.00 0.00 0.00 51 1005.6
20260505203709 92 130 1.0 1.0 0.00 0.00 0.00 53 1005.7
20260505203206 92 195 1.0 1.0 0.00 0.00 0.00 55 1005.9
20260505202701 91 186 2.0 2.0 0.00 0.00 0.00 54 1006.0
20260505202158 92 208 0.0 0.0 0.00 0.00 0.00 56 1006.1
20260505201654 91 216 1.0 1.0 0.00 0.00 0.00 55 1006.2
20260505201153 91 181 1.0 2.0 0.00 0.00 0.00 56 1006.0
20260505200650 90 183 0.0 1.0 0.00 0.00 0.00 55 1006.3
20260505200147 91 220 2.0 2.0 0.00 0.00 0.00 56 1006.2
20260505195643 92 211 2.0 3.0 0.00 0.00 0.00 58 1006.2
20260505195140 91 182 2.0 3.0 0.00 0.00 0.00 58 1006.2
20260505194637 91 170 2.0 3.0 0.00 0.00 0.00 59 1006.3
20260505194133 91 239 0.0 0.0 0.00 0.00 0.00 59 1006.2
20260505193630 91 211 3.0 3.0 0.00 0.00 0.00 58 1006.4
20260505193127 91 241 1.0 2.0 0.00 0.00 0.00 56 1006.4
20260505192626 89 177 1.0 1.0 0.00 0.00 0.00 58 1006.1
20260505192123 90 247 1.0 2.0 0.00 0.00 0.00 59 1006.1
20260505191621 90 202 1.0 1.0 0.00 0.00 0.00 61 1006.3
20260505191119 89 161 2.0 2.0 0.00 0.00 0.00 62 1006.2
20260505190614 89 235 2.0 2.0 0.00 0.00 0.00 62 1006.3
20260505190110 89 174 2.0 3.0 0.00 0.00 0.00 61 1006.5
20260505185607 87 191 0.0 0.0 0.00 0.00 0.00 63 1006.3
20260505185103 89 238 2.0 3.0 0.00 0.00 0.00 62 1006.4
20260505184559 88 220 1.0 1.0 0.00 0.00 0.00 62 1006.4
20260505184056 88 191 2.0 2.0 0.00 0.00 0.00 62 1006.4
20260505183553 87 201 0.0 1.0 0.00 0.00 0.00 63 1006.8
20260505183051 87 42 2.0 3.0 0.00 0.00 0.00 64 1006.5
20260505182541 87 216 2.0 2.0 0.00 0.00 0.00 64 1006.7
20260505182038 86 217 1.0 1.0 0.00 0.00 0.00 66 1006.5
20260505181535 86 146 2.0 2.0 0.00 0.00 0.00 65 1006.7
20260505181032 86 225 1.0 2.0 0.00 0.00 0.00 65 1006.8
20260505180527 86 216 2.0 2.0 0.00 0.00 0.00 65 1006.5
20260505180026 86 202 1.0 1.0 0.00 0.00 0.00 66 1006.7
20260505175521 85 209 1.0 1.0 0.00 0.00 0.00 66 1006.8
20260505175018 86 192 1.0 2.0 0.00 0.00 0.00 67 1006.7
20260505174515 86 99 4.0 6.0 0.00 0.00 0.00 66 1006.9
20260505174011 86 216 1.0 2.0 0.00 0.00 0.00 67 1006.8